{"data":{"norad_id":67495,"epoch":"2026-05-24T15:14:59.213184Z","epoch_age_seconds":100315,"freshness":"FRESH","line1":"1 67495U 26012C   26144.63540756  .00020349  00000+0  74694-3 0  9995","line2":"2 67495  43.0029 245.7816 0001776 280.3278  79.7373 15.27580288 19377","mean_motion":15.27580288,"eccentricity":0.0001776,"inclination_deg":43.0029,"raan_deg":245.7816,"arg_perigee_deg":280.3278,"mean_anomaly_deg":79.7373,"bstar":0.00074694,"rev_number":1937,"period_min":94.266730941215,"perigee_km":481.82968716668,"apogee_km":484.26678016168,"semimajor_km":6861.1852336642,"source":"CELESTRAK","updated_at":"2026-05-25T13:38:21.566552Z"}}